Location: Barrio Escalonilla
(40.5466°N, 4.7859°W)
Time: 01:58:52
(UTC+00:00)

Daily predictions for brighter satellites

Satellite Brightness Start Highest point End
(mag) Time Altitude Azimuth Time Altitude Azimuth Time Altitude Azimuth
Cosmos 2219 Rocket 3.9 00:02:23 10° N 00:07:05 26° NE 00:09:48 18° E
Cosmos-2242 4.0 00:04:44 10° NNW 00:08:00 40° WNW 00:08:00 40° WNW
ERS-2 3.6 00:09:52 10° NNE 00:12:02 35° NNE 00:12:02 35° NNE
ATLAS 5 CENTAUR R/B 4.1 00:11:17 10° WNW 00:13:30 15° NW 00:15:52 10° N
ALOS 2 3.5 00:17:12 42° WNW 00:17:12 42° WNW 00:20:39 10° NNW
Cosmos 1605 Rocket 4.4 00:15:27 10° N 00:21:44 55° E 00:23:03 47° ESE
Nadezhda 3 Rocket 4.5 00:21:05 42° WSW 00:22:21 48° WNW 00:28:18 10° N
Meteor 2-11 Rocket 4.3 00:20:39 10° N 00:26:47 82° E 00:27:34 69° SSE
ISS -1.0 00:34:35 16° NE 00:34:35 16° NE 00:35:19 10° NE
ADEOS Rocket 3.8 00:32:39 45° SW 00:34:12 51° W 00:41:39 10° NNW
Cosmos 1953 Rocket 4.2 00:35:52 50° NW 00:35:52 50° NW 00:39:39 10° N
Cosmos 972 Rocket 4.0 00:32:47 10° NNW 00:38:05 88° W 00:38:23 81° S
Cosmos 2322 Rocket 2.5 00:32:52 10° NNW 00:38:11 51° W 00:38:11 51° W
PSLV R/B 3.9 00:36:19 10° N 00:40:46 67° NW 00:40:46 67° NW
NOSS 3-2 (A) 3.8 00:42:18 43° ESE 00:42:18 43° ESE 00:47:37 10° NE
Cosmos 1340 Rocket 4.3 00:48:35 29° NW 00:48:35 29° NW 00:51:23 10° N
SJ 16-02 3.1 00:46:51 10° NW 00:49:15 23° WNW 00:49:15 23° WNW
Cosmos 2151 3.7 00:51:31 48° ENE 00:51:31 48° ENE 00:55:02 10° NNE
Cosmos 2285 Rocket 4.2 00:53:03 52° SE 00:54:00 58° ESE 01:00:18 10° NNE
Cosmos 2333 Rocket 2.2 00:48:14 10° NNW 00:54:02 81° ENE 00:54:50 66° SE
Gbstr 26 Del rocket 4.5 00:53:35 27° WNW 00:55:23 39° NNW 01:00:19 10° NE
CENTAUR R/B 2.5 00:56:43 53° SE 00:57:01 53° ESE 01:03:27 10° NE
Cosmos 1898 Rocket 4.4 00:54:21 10° N 00:59:16 41° ENE 01:00:41 34° ESE
Cosmos 1812 3.9 00:58:43 10° N 01:01:39 38° NE 01:01:39 38° NE
Meteor 2-3 Rocket 3.5 01:03:14 74° SW 01:03:43 82° W 01:09:19 10° N
Cosmos 2221 3.4 01:01:46 10° NNW 01:05:05 41° WNW 01:05:05 41° WNW
BREEZE-M DEB (TANK) 4.3 01:05:55 29° NW 01:06:49 35° N 01:12:44 10° ENE
Cosmos 1842 Rocket 4.1 01:04:37 10° NNW 01:08:22 53° NW 01:08:22 53° NW
Cosmos 2227 Rocket 4.1 01:11:32 16° ESE 01:12:43 17° E 01:16:12 10° ENE
Cosmos 1782 3.5 01:09:36 10° N 01:12:43 53° N 01:12:43 53° N
Cosmos 2360 Rocket 2.9 01:08:52 10° NW 01:13:44 40° W 01:13:44 40° W
Cosmos 1153 Rocket 4.4 01:10:17 10° N 01:16:40 89° E 01:18:00 59° S
Resurs 1-4 Rocket 3.1 01:13:20 10° NNE 01:18:10 34° E 01:19:05 32° ESE
Cosmos 2333 4.2 01:13:17 10° NNW 01:19:00 63° WSW 01:19:15 62° WSW
CZ-2D R/B 2.9 01:22:09 10° NNE 01:27:01 38° E 01:27:58 35° ESE
NOSS 3-2 (C) 3.4 01:28:59 50° SE 01:29:32 52° ESE 01:35:24 10° NE
COSMOS 2455 4.5 01:24:32 10° NNW 01:29:53 32° NE 01:35:11 10° ESE
BREEZE-M DEB (TANK) 3.2 01:24:07 10° WNW 01:31:39 75° W 01:31:39 75° W
SL-4 R/B 4.5 01:34:22 10° WNW 01:36:54 18° NNW 01:39:33 10° NNE
Cosmos 1727 Rocket 4.2 01:35:56 49° SW 01:37:20 60° W 01:43:34 10° N
USA 234 3.8 01:39:20 37° WSW 01:39:20 37° WSW 01:44:47 10° WNW
SL-16 R/B 3.5 01:34:43 18° SE 01:39:05 44° ENE 01:44:58 10° N
Cosmos 2237 Rocket 3.6 01:33:56 10° N 01:39:06 35° ENE 01:44:13 10° ESE
COSMOS 2428 2.6 01:34:58 10° NNW 01:40:43 86° WSW 01:42:02 55° SSE
Cosmos 1459 Rocket 3.9 01:35:05 10° N 01:41:10 79° E 01:43:02 47° SSE
Cosmos 2297 Rocket 2.7 01:40:41 41° SE 01:41:50 46° ESE 01:47:12 10° NE
Cosmos 1000 Rocket 4.4 01:40:58 54° S 01:42:29 87° W 01:48:39 10° N
Cosmos 1763 Rocket 4.3 01:41:41 35° W 01:42:38 38° WNW 01:47:35 10° N
USA 238 DEB 3.6 01:45:54 50° S 01:47:37 72° ESE 01:54:19 10° NE
USA 238 3.6 01:46:03 50° S 01:47:45 71° ESE 01:54:28 10° NE
ADEOS II 3.3 01:43:31 10° NNE 01:48:15 33° E 01:50:00 27° SE
Cosmos 372 Rocket 4.3 01:45:03 10° NNW 01:50:14 62° ENE 01:52:20 35° SE
Cosmos 2219 Rocket 2.5 01:45:50 10° NW 01:51:15 47° WSW 01:51:29 47° WSW
Cosmos 841 Rocket 3.3 01:51:22 63° SW 01:52:08 78° WNW 01:57:20 10° NNE
Cosmos 2322 3.9 01:48:56 10° NW 01:54:22 48° WSW 01:54:41 48° WSW
Thor Agena Rocket 3.5 01:49:36 10° N 01:54:45 69° WNW 01:55:38 57° SW
Cosmos 1184 Rocket 4.2 01:53:32 10° N 01:55:25 34° N 01:55:25 34° N
Okean 3 Rocket 4.2 01:58:09 42° SE 01:59:03 49° E 02:03:26 10° NNE
Cosmos 2100 Rocket 4.0 01:54:13 10° NNW 02:00:33 67° W 02:02:26 46° SSW
Cosmos 858 Rocket 4.3 01:57:20 10° NNW 02:02:35 83° WSW 02:03:53 52° S
SL-24 DEB 4.4 02:03:40 52° W 02:03:48 53° W 02:08:18 10° NNW
Cosmos 2123 Rocket 3.9 02:03:27 44° S 02:05:40 90° E 02:12:02 10° N
Cosmos 2173 Rocket 4.1 01:59:49 10° NNW 02:06:07 64° W 02:08:07 43° SSW
Cosmos 1725 Rocket 4.0 02:01:00 10° N 02:07:12 76° E 02:10:13 32° SSE
ISS -1.2 02:07:28 13° NW 02:09:09 18° NNW 02:11:34 10° NNE
IDEFIX/ARIANE 42P 3.1 02:10:17 10° NNE 02:15:21 51° E 02:17:27 32° SSE
Geosat 4.1 02:14:58 50° SW 02:15:33 53° WSW 02:20:29 10° NW
Meteor 1-27 Rocket 4.3 02:10:07 10° N 02:15:36 54° ENE 02:19:21 20° SSE
Cosmos 2016 Rocket 3.9 02:15:00 10° N 02:21:05 76° W 02:23:41 36° S
Cosmos 1356 Rocket 3.2 02:25:54 65° SW 02:26:18 71° W 02:30:17 10° N
NPP 3.7 02:25:47 10° N 02:31:08 65° WNW 02:33:04 39° SW
MSX 4.2 02:28:01 10° NNE 02:33:43 59° E 02:37:00 26° S
Cosmos 1340 3.4 02:30:19 10° NNW 02:33:25 37° WNW 02:33:25 37° WNW
Lacrosse 4 Rocket 4.0 02:31:44 10° N 02:34:50 21° NE 02:37:56 10° ESE
SAR-Lupe-2 3.6 02:32:38 10° NNE 02:36:13 72° ESE 02:36:50 56° SSE
Cosmos 1151 Rocket 3.5 02:33:20 10° NNW 02:37:28 41° W 02:37:55 40° WSW
Cosmos 2333 Rocket 4.1 02:34:50 10° WNW 02:36:48 13° W 02:36:48 13° W
Cosmos 1802 Rocket 4.4 02:32:02 10° NNW 02:37:57 46° W 02:40:19 32° SW
IRS-1D 4.3 02:34:19 10° NNE 02:39:03 42° E 02:42:03 20° SSE
Cosmos 1980 3.6 02:35:46 10° NNW 02:41:25 71° WSW 02:45:08 22° S
Cosmos 1515 3.5 02:38:05 10° N 02:41:54 87° WSW 02:42:52 48° S
ATLAS CENTAUR R/B 3.9 02:40:30 11° SE 02:43:16 17° ESE 02:46:16 10° ENE
Meteor 1-10 Rocket 4.5 02:37:52 10° NNW 02:43:35 53° W 02:46:00 32° SSW
AQUA 4.0 02:40:41 10° N 02:45:22 58° WNW 02:47:03 36° SW
Cosmos 2061 Rocket 4.2 02:39:57 10° NNW 02:46:14 57° W 02:49:31 28° SSW
Cosmos 1328 Rocket 3.7 02:43:18 10° NNW 02:47:36 52° W 02:48:43 40° SW
CENTAUR R/B 3.8 02:43:52 15° W 02:48:02 31° NW 02:54:15 10° NNE
Cosmos 1937 Rocket 4.5 02:44:56 10° NW 02:49:16 27° W 02:49:44 26° WSW
Cosmos 1400 Rocket 2.7 02:49:41 42° S 02:50:58 88° W 02:55:01 10° N
NOSS 0 Rocket 4.4 02:50:19 10° NW 02:55:57 38° WSW 02:58:23 27° SSW
MOS 1 Rocket 4.1 02:54:35 31° SW 02:56:06 38° W 03:01:02 10° NNW
Cosmos 2227 Rocket 2.3 02:53:21 30° SW 02:56:08 65° WNW 03:01:48 10° NNE
Resurs 1-4 Rocket 3.2 02:53:15 10° N 02:57:51 31° WNW 03:00:09 22° WSW
SL-16 R/B 3.1 02:52:27 10° NNW 02:57:59 49° ENE 03:03:29 10° SE
OE (NEXTSAT) 4.3 02:57:52 43° W 02:58:46 69° NNW 03:02:02 10° ENE
Cosmos 1515 Rocket 3.4 02:55:53 10° N 03:00:16 77° W 03:02:40 26° S
Meteor 1-28 Rocket 3.4 03:02:26 39° SW 03:03:19 48° W 03:06:54 10° NNW
Cosmos 2082 3.9 03:00:38 23° S 03:04:13 66° ESE 03:09:49 10° NNE
OAO 3 Rocket 3.8 03:05:06 29° SW 03:06:39 36° SSW 03:11:10 10° SE
Sich 1 4.1 03:03:15 13° SSE 03:06:50 41° E 03:10:52 10° NNE
CZ-2D R/B 3.4 03:02:35 10° N 03:06:51 26° WNW 03:09:17 19° WSW
Cosmos 2263 Rocket 3.4 03:03:16 11° SSE 03:07:59 35° ESE 03:13:00 10° NE
Cosmos 1805 Rocket 4.1 03:06:46 17° S 03:10:05 57° E 03:14:24 10° NNE
Cosmos 1602 4.2 03:11:20 31° SW 03:12:34 42° W 03:16:12 10° N
Cosmos 1666 2.6 03:11:10 26° S 03:13:10 84° E 03:16:54 10° N
Cosmos 1743 Rocket 3.5 03:11:00 23° S 03:13:44 89° W 03:18:09 10° N
COSMOS 2455 3.1 03:10:16 10° NW 03:15:57 45° WSW 03:21:35 10° S
Helios 1B rocket 3.6 03:12:22 10° NNE 03:16:13 38° E 03:20:02 10° SSE
EO 1 Del DPAF 3.3 03:15:01 10° N 03:18:23 48° WNW 03:19:45 29° SW
Meteor 1-25 Rocket 4.5 03:17:06 21° SSW 03:20:57 59° WNW 03:26:43 10° N
SL-16 R/B 3.4 03:19:48 21° SW 03:22:46 30° W 03:28:11 10° NW
Cosmos 2237 Rocket 2.9 03:18:04 10° NW 03:23:04 33° WSW 03:26:23 18° SSW
Meteor 2-4 Rocket 4.5 03:17:43 10° N 03:23:13 54° ENE 03:28:52 10° SSE
ALOS 3.3 03:18:56 10° NNE 03:23:22 41° E 03:27:45 10° S
ATLAS 3B R/B 4.3 03:19:18 10° SSE 03:24:23 25° ESE 03:29:39 10° ENE
Cosmos 1500 3.9 03:23:01 26° SW 03:24:31 37° WNW 03:28:01 10° N
Cosmos 1408 Rocket 4.4 03:22:54 23° WSW 03:24:49 34° WNW 03:28:45 10° N
Cosmos 332 Rocket 4.4 03:20:10 10° NNW 03:25:02 60° ENE 03:29:52 10° SSE
Cosmos 2297 Rocket 3.6 03:22:30 15° WSW 03:26:04 26° NW 03:30:47 10° N
Cosmos 2219 3.8 03:23:15 20° WSW 03:26:49 42° WNW 03:32:10 10° N
Cosmos 2346 Rocket 4.5 03:21:13 12° S 03:26:51 86° E 03:33:02 10° N
ADEOS II 3.2 03:23:16 10° N 03:27:49 30° WNW 03:30:56 17° WSW
Cosmos 1346 Rocket 2.6 03:25:47 10° NNW 03:29:41 80° W 03:33:34 10° S
SL-19 R/B 4.1 03:26:14 10° NNE 03:31:29 84° ESE 03:36:17 12° SSW
Cosmos 921 Rocket 3.2 03:28:31 15° S 03:32:10 74° ESE 03:36:37 10° NNE
Cosmos 2228 Rocket 3.4 03:27:59 10° N 03:32:27 70° E 03:36:55 10° SSE
Cosmos 1125 Rocket 3.5 03:27:30 10° NNW 03:32:48 71° WSW 03:38:04 10° S
Cosmos 405 3.7 03:30:18 11° S 03:33:26 49° E 03:36:46 10° NNE
Cosmos 44 Rocket 3.9 03:31:40 18° WSW 03:34:54 44° NW 03:39:29 10° NNE
Cosmos 1464 Rocket 4.1 03:29:18 10° N 03:35:42 84° E 03:42:05 10° S
Cosmos 2150 Rocket 4.1 03:34:03 10° NNW 03:39:24 67° WSW 03:44:47 10° S
Cosmos 1441 Rocket 3.4 03:36:23 10° N 03:40:21 78° E 03:44:17 10° SSE
Cosmos 2084 4.4 03:37:00 10° NNW 03:41:01 50° NE 03:45:14 10° SE
Cosmos 2098 Rocket 1.9 03:39:19 18° SSW 03:41:16 74° W 03:44:19 10° N
Cosmos 371 Rocket 3.7 03:42:02 10° NW 03:46:32 40° WSW 03:51:01 10° S
ISS -0.7 03:45:22 10° NNW 03:46:56 13° N 03:48:31 10° NNE
OPS 6432 4.3 03:45:56 10° NW 03:49:00 66° SW 03:52:44 10° SSE
Helios 1A 4.2 03:46:57 16° SW 03:49:10 24° W 03:52:33 10° NW
Cosmos 773 Rocket 4.2 03:44:23 10° S 03:49:34 71° ESE 03:54:45 10° NNE
Cosmos 304 Rocket 3.8 03:48:26 10° NNW 03:53:08 57° WSW 03:57:48 10° S
IDEFIX/ARIANE 42P 4.1 03:50:47 10° NNW 03:54:32 20° WNW 03:58:14 10° WSW
USA 215 4.2 03:48:41 10° ENE 03:54:44 39° SE 04:00:44 10° SSW
Okean 1 4.2 03:52:45 10° NNW 03:56:15 31° W 03:59:33 11° SSW
Cosmos 1356 3.4 03:54:39 10° NNW 03:57:52 55° W 04:01:03 10° S
Timation 2 Rocket 4.1 03:54:29 11° SSW 04:00:32 74° WNW 04:07:08 10° NNE
CZ-2C R/B 2.2 04:00:41 10° N 04:05:16 80° WNW 04:09:50 10° SSW
CZ-2C R/B 4.3 04:03:41 10° SE 04:08:50 40° ENE 04:14:02 10° N
CZ-2D R/B 4.1 04:05:53 10° NNE 04:10:04 60° E 04:14:18 10° S
Meteor 1-5 Rocket 4.3 04:06:52 10° SSW 04:12:01 52° WNW 04:17:12 10° N
Lacrosse 4 Rocket 1.9 04:09:48 10° NW 04:13:31 35° WSW 04:17:16 10° S
Meteor 1-14 Rocket 4.4 04:08:37 10° SSW 04:14:21 59° WNW 04:19:59 10° N
Cosmos 1743 3.7 04:14:18 10° SSE 04:17:54 46° E 04:21:33 10° NNE
ATLAS CENTAUR R/B 2.0 04:16:53 10° SW 04:21:30 59° NW 04:26:21 10° NNE
APEX 2.4 04:20:01 10° NNW 04:22:58 86° ENE 04:25:39 10° SSE
ARIANE 5 R/B 2.5 04:18:46 10° N 04:23:49 74° WNW 04:28:54 10° SSW
Cosmos 1633 Rocket 3.1 04:19:40 10° SSW 04:23:58 65° W 04:28:18 10° N
FENGYUN 3A 4.2 04:19:41 10° N 04:24:48 43° WNW 04:29:53 10° SW
Cosmos 158 Rocket 4.0 04:21:53 10° SSW 04:26:59 87° WNW 04:32:16 10° NNE
